This is the latest recevied weather packets stored in our database for station/object KB1FPD. If no packets are shown the sender has not sent any weather packets the latest 10 day(s).
| Time | Temp. | Humidity | Pressure | Rain* | Wind** | Luminosity | Snow |
|---|---|---|---|---|---|---|---|
| 1777840028 | 15° C | 45% | 1013.9 hPa | 0 mm | - | - | - |
| 1777839720 | 15° C | 41% | 1014 hPa | 0 mm | - | - | - |
| 1777839420 | 14.44° C | 42% | 1014 hPa | 0 mm | - | - | - |
| 1777839123 | 14.44° C | 41% | 1014.2 hPa | 0 mm | - | - | - |
| 1777838820 | 15° C | 44% | 1014.2 hPa | 0 mm | - | - | - |
| 1777838520 | 14.44° C | 46% | 1014.2 hPa | 0 mm | - | - | - |
| 1777838238 | 15° C | 37% | 1014.1 hPa | 0 mm | - | - | - |
| 1777837925 | 15° C | 39% | 1014.3 hPa | 0 mm | - | - | - |
| 1777837617 | 14.44° C | 39% | 1014.4 hPa | 0 mm | - | - | - |
| 1777837318 | 14.44° C | 50% | 1014.4 hPa | 0 mm | - | - | - |
| 1777837020 | 14.44° C | 43% | 1014.4 hPa | 0 mm | - | - | - |
| 1777836718 | 14.44° C | 39% | 1014.5 hPa | 0 mm | - | - | - |
| 1777836421 | 15° C | 42% | 1014.6 hPa | 0 mm | - | - | - |
| 1777836115 | 14.44° C | 45% | 1014.7 hPa | 0 mm | - | - | - |
| 1777835814 | 14.44° C | 49% | 1014.7 hPa | 0 mm | - | - | - |
| 1777835515 | 14.44° C | 47% | 1014.6 hPa | 0 mm | - | - | - |
| 1777835211 | 13.89° C | 44% | 1014.7 hPa | 0 mm | - | - | - |
| 1777834914 | 13.89° C | 50% | 1014.7 hPa | 0 mm | - | - | - |
| 1777834610 | 13.33° C | 39% | 1014.9 hPa | 0 mm | - | - | - |
| 1777834314 | 13.33° C | 43% | 1014.7 hPa | 0 mm | - | - | - |
| 1777834010 | 13.33° C | 42% | 1015.1 hPa | 0 mm | - | - | - |
| 1777833716 | 13.89° C | 41% | 1015.1 hPa | 0 mm | - | - | - |
| 1777833414 | 13.89° C | 44% | 1015.1 hPa | 0 mm | - | - | - |
| 1777833116 | 13.89° C | 47% | 1015.1 hPa | 0 mm | - | - | - |
| 1777832811 | 13.89° C | 46% | 1015.1 hPa | 0 mm | - | - | - |
* Rain latest hour (hover to see other rain measurements)
** Current wind speed in m/s (hover to see current wind gust speed)